COSMOS 2414

导读 | 豆包AI

COSMOS 2414是独联体(CIS)于2005年1月20日08:00发射的航天器,隶属于“宇宙(COSMOS)”系列卫星,该系列多承担军事航天、侦察观测任务。作为独联体时期发射的保密卫星,它进入预定近地轨道运行,延续了该系列航天器服务国防空间监测、电子侦察或航天技术试验的传统,是独联体维持空间军事能力的重要航天资产。

Basic Information
目录编号:
28521
目录名称:
COSMOS 2414
国际标识:
2005-002A
轨道中心:
EARTH
卫星名称:
COSMOS 2414
卫星全名:
--
卫星状态:
在轨 (已飞行7723 天)
发射日期:
2005-01-20 UTC
国别 :
俄罗斯(独联体) (CIS)
星等 :
--
Orbit Information
数据来源 国际轨道数据 AOE轨道数据
星历时间 2026-03-13T21:59:46+0800
13小时前
查看轨道信息
2026-03-13T10:00:00+0800
1天前
查看轨道信息
半长轴 7314.08km 7314.082km
偏心率 0.0038861 0.0038821
轨道倾角 82.947° 82.948°
近地点辐角 240.938° 242.112°
升交点赤经 115.973° 116.351°
平近点角 118.789° 141.610°
近地点 907.519km 907.551km
远地点 964.367km 964.339km
周期 103.753分钟 103.753分钟
每日圈数 13.879161 13.879157
Detailed Information
使用方式:
暂无
2D Orbit Map
3D Orbit Map
Orbit Altitude Analysis Chart
Orbit Inclination Analysis Chart
Orbit Comprehensive Analysis Chart
View Comprehensive Chart